Air Quality Table

TIMESTAMP NO2 O3 PM2.5 TEMP HUM AIRPRES WS WD NO
2021-08-02 16:00 6.72 ug/m3 87.66 ug/m3 14.68 ug/m3 37.07 C 22.61 % 999.66 mbar 1.25 m/s 302.91 Deg 1.54 ug/m3
2021-08-02 15:00 5.23 ug/m3 92.32 ug/m3 18.61 ug/m3 36.71 C 23.94 % 999.92 mbar 1.62 m/s 288.13 Deg 0.77 ug/m3
2021-08-02 14:00 4.51 ug/m3 95.28 ug/m3 20.77 ug/m3 36.93 C 25.64 % 1,000.02 mbar 1.81 m/s 288.94 Deg 0.58 ug/m3
2021-08-02 13:00 8.81 ug/m3 99.23 ug/m3 20.14 ug/m3 36.86 C 27.57 % 1,000.18 mbar 1.93 m/s 241.85 Deg 1.1 ug/m3
2021-08-02 12:00 11.83 ug/m3 113.24 ug/m3 22.94 ug/m3 36.41 C 33.82 % 1,000.17 mbar 1.39 m/s 205.15 Deg 1.89 ug/m3
2021-08-02 11:00 9.25 ug/m3 100.78 ug/m3 28.05 ug/m3 36.58 C 25.45 % 1,000.08 mbar 1.55 m/s 224.87 Deg 1.26 ug/m3
2021-08-02 10:00 26.29 ug/m3 91.97 ug/m3 23.05 ug/m3 35.79 C 37.42 % 999.93 mbar 1.41 m/s 197.92 Deg 3.87 ug/m3
2021-08-02 09:00 21.02 ug/m3 80.1 ug/m3 23.15 ug/m3 33.96 C 44.87 % 999.93 mbar 0.88 m/s 262.86 Deg 2.98 ug/m3
2021-08-02 08:00 14.33 ug/m3 73.44 ug/m3 16.51 ug/m3 30.45 C 67 % 999.88 mbar 0.87 m/s 90.47 Deg 1.92 ug/m3
2021-08-02 07:00 15.88 ug/m3 71.38 ug/m3 17.42 ug/m3 28.76 C 73.41 % 999.73 mbar 1.02 m/s 262.22 Deg 0.76 ug/m3
2021-08-02 06:00 36.22 ug/m3 40.78 ug/m3 17.46 ug/m3 28.46 C 46.81 % 999.40 mbar 0.98 m/s 148.15 Deg 2.5 ug/m3
2021-08-02 05:00 22.53 ug/m3 50.39 ug/m3 15.83 ug/m3 28.41 C 40.98 % 999.03 mbar 0.47 m/s 267.32 Deg 0.07 ug/m3
2021-08-02 04:00 11.07 ug/m3 83.94 ug/m3 12.92 ug/m3 29.28 C 43.07 % 998.87 mbar 0.66 m/s 331.05 Deg 0.08 ug/m3
2021-08-02 03:00 5.87 ug/m3 78.25 ug/m3 11.77 ug/m3 28.87 C 47.61 % 998.93 mbar 0.5 m/s 295.43 Deg -0.06 ug/m3
2021-08-02 02:00 4.96 ug/m3 86.99 ug/m3 12.88 ug/m3 28.71 C 55.84 % 999.18 mbar 0.51 m/s 305.77 Deg 0.04 ug/m3
2021-08-02 01:00 7.05 ug/m3 77.84 ug/m3 13.41 ug/m3 28.1 C 67 % 999.29 mbar 0.78 m/s 251.77 Deg 0.09 ug/m3
2021-08-02 00:00 5.42 ug/m3 65.41 ug/m3 13.2 ug/m3 28.57 C 75.75 % 999.49 mbar 0.9 m/s 254.45 Deg 0.08 ug/m3
2021-08-01 23:00 8.88 ug/m3 63.08 ug/m3 16.17 ug/m3 29.23 C 58.53 % 999.67 mbar 1.03 m/s 350.67 Deg 0 ug/m3
2021-08-01 22:00 16.32 ug/m3 57.01 ug/m3 15.15 ug/m3 30.55 C 38.21 % 999.81 mbar 0.97 m/s 356.51 Deg 0.08 ug/m3
2021-08-01 21:00 11.28 ug/m3 65.71 ug/m3 13.32 ug/m3 32.06 C 25.52 % 999.51 mbar 0.52 m/s 331.88 Deg 0.52 ug/m3
2021-08-01 20:00 8.6 ug/m3 72.94 ug/m3 9.89 ug/m3 33.37 C 22.44 % 999.05 mbar 0.68 m/s 349 Deg -0.01 ug/m3
2021-08-01 19:00 4.26 ug/m3 84.15 ug/m3 9.63 ug/m3 35.27 C 16.85 % 998.53 mbar 0.64 m/s 335.94 Deg 0.05 ug/m3
2021-08-01 18:00 2.07 ug/m3 89.79 ug/m3 11.8 ug/m3 36.92 C 15.12 % 998.33 mbar 0.92 m/s 305.01 Deg 0.17 ug/m3
2021-08-01 17:00 1.89 ug/m3 91 ug/m3 12.81 ug/m3 37.1 C 16.67 % 998.21 mbar 1.91 m/s 245.48 Deg 0.15 ug/m3
2021-08-01 16:00 1.81 ug/m3 95.46 ug/m3 13.9 ug/m3 37.53 C 17.29 % 998.27 mbar 2.6 m/s 246.03 Deg 0.2 ug/m3
2021-08-01 15:00 1.49 ug/m3 99.54 ug/m3 15.68 ug/m3 38.74 C 17.59 % 998.29 mbar 1.77 m/s 220.18 Deg 0.15 ug/m3
2021-08-01 14:00 2.26 ug/m3 99.07 ug/m3 15.85 ug/m3 37.91 C 21.81 % 998.53 mbar 2.02 m/s 208.38 Deg 0.24 ug/m3
2021-08-01 13:00 3.05 ug/m3 102.62 ug/m3 15.43 ug/m3 37.64 C 21.25 % 998.77 mbar 1.85 m/s 210.98 Deg 0.21 ug/m3
2021-08-01 12:00 4.78 ug/m3 109.39 ug/m3 18.31 ug/m3 36.8 C 23.62 % 999.07 mbar 1.55 m/s 202.77 Deg 0.43 ug/m3
2021-08-01 11:00 11.41 ug/m3 105.33 ug/m3 20.77 ug/m3 35.83 C 30.6 % 999.14 mbar 1.64 m/s 190.63 Deg 1.48 ug/m3
2021-08-01 10:00 15.46 ug/m3 94.4 ug/m3 17.25 ug/m3 35.31 C 32.55 % 998.97 mbar 2 m/s 158.28 Deg 1.94 ug/m3
2021-08-01 09:00 5.82 ug/m3 92.86 ug/m3 13.81 ug/m3 34.57 C 33.52 % 998.84 mbar 1.27 m/s 143.81 Deg 0.67 ug/m3
2021-08-01 08:00 5.38 ug/m3 82.28 ug/m3 13.37 ug/m3 32.49 C 41.52 % 999.08 mbar 0.97 m/s 249.66 Deg 0.41 ug/m3
2021-08-01 07:00 5.38 ug/m3 77.43 ug/m3 14.66 ug/m3 30.43 C 48.83 % 998.77 mbar 0.85 m/s 338.6 Deg 0.21 ug/m3
2021-08-01 06:00 4.35 ug/m3 76.3 ug/m3 20.92 ug/m3 28.89 C 54.55 % 998.53 mbar 0.98 m/s 319.46 Deg 0.14 ug/m3
2021-08-01 05:00 12.58 ug/m3 56.31 ug/m3 19.88 ug/m3 28.9 C 37.04 % 997.62 mbar 1 m/s 303.8 Deg 0.15 ug/m3
2021-08-01 04:00 13.56 ug/m3 48.83 ug/m3 17.17 ug/m3 28.11 C 36.08 % 997.35 mbar 0.41 m/s 273.15 Deg 0.08 ug/m3
2021-08-01 03:00 16.18 ug/m3 51.76 ug/m3 16.15 ug/m3 28.42 C 39.91 % 997.93 mbar 0.43 m/s 262.68 Deg 0.13 ug/m3
2021-08-01 02:00 4.33 ug/m3 77.74 ug/m3 16.32 ug/m3 28.98 C 48.05 % 998.67 mbar 0.6 m/s 308.23 Deg 0.09 ug/m3
2021-08-01 01:00 7.56 ug/m3 71.22 ug/m3 17.06 ug/m3 29.58 C 49.86 % 999.13 mbar 0.83 m/s 321.95 Deg 0 ug/m3
2021-08-01 00:00 16.53 ug/m3 54.29 ug/m3 16.19 ug/m3 28.92 C 57.3 % 999.34 mbar 0.85 m/s 171.42 Deg 0.03 ug/m3
2021-07-31 23:00 17.55 ug/m3 57.19 ug/m3 14.49 ug/m3 28.84 C 64.26 % 999.16 mbar 0.65 m/s 283.49 Deg 0.12 ug/m3
2021-07-31 22:00 12.81 ug/m3 69.57 ug/m3 13.41 ug/m3 29.36 C 61.17 % 999.05 mbar 0.7 m/s 217.97 Deg 0.05 ug/m3
2021-07-31 21:00 5.52 ug/m3 87.75 ug/m3 14.92 ug/m3 29.71 C 61.56 % 998.80 mbar 0.86 m/s 70.8 Deg 0.02 ug/m3
2021-07-31 20:00 21.14 ug/m3 68.49 ug/m3 16.25 ug/m3 30.49 C 59.07 % 998.11 mbar 1.02 m/s 116.88 Deg 0.21 ug/m3
2021-07-31 19:00 23.12 ug/m3 70.39 ug/m3 17.34 ug/m3 32.44 C 52.42 % 997.50 mbar 1.38 m/s 14.48 Deg 0.69 ug/m3
2021-07-31 18:00 15.55 ug/m3 93.93 ug/m3 17.93 ug/m3 34.19 C 47.21 % 997.13 mbar 1.15 m/s 126.57 Deg 1.01 ug/m3
2021-07-31 17:00 11.92 ug/m3 94.68 ug/m3 17.46 ug/m3 34.68 C 50.57 % 997.25 mbar 1.22 m/s 166.33 Deg 1.15 ug/m3
2021-07-31 16:00 10.15 ug/m3 97.17 ug/m3 17.46 ug/m3 35.26 C 49.26 % 997.52 mbar 1.25 m/s 251.03 Deg 1.13 ug/m3
2021-07-31 15:00 8.25 ug/m3 101.98 ug/m3 17.46 ug/m3 35.32 C 47.39 % 997.76 mbar 1.16 m/s 222.36 Deg 0.9 ug/m3
2021-07-31 14:00 9.71 ug/m3 101.91 ug/m3 18.65 ug/m3 35.2 C 45.18 % 997.94 mbar 1.87 m/s 106.87 Deg 1.15 ug/m3
2021-07-31 13:00 8.21 ug/m3 108.02 ug/m3 14.79 ug/m3 35.8 C 37.33 % 998.13 mbar 1.47 m/s 72.32 Deg 0.9 ug/m3
2021-07-31 12:00 12.68 ug/m3 101.2 ug/m3 15.72 ug/m3 36.35 C 31.63 % 998.21 mbar 2.16 m/s 255.38 Deg 1.76 ug/m3
2021-07-31 11:00 7.71 ug/m3 95.21 ug/m3 16.95 ug/m3 36.98 C 22.27 % 998.28 mbar 1.37 m/s 181.46 Deg 0.99 ug/m3
2021-07-31 10:00 7.06 ug/m3 89.86 ug/m3 21.05 ug/m3 36.08 C 24.25 % 998.71 mbar 1.23 m/s 327.79 Deg 0.97 ug/m3
2021-07-31 09:00 12.74 ug/m3 80.62 ug/m3 25.17 ug/m3 34.36 C 29.18 % 998.94 mbar 1.49 m/s 301.7 Deg 2.15 ug/m3
2021-07-31 08:00 16.77 ug/m3 76.82 ug/m3 22.73 ug/m3 31.42 C 44.96 % 998.85 mbar 1.4 m/s 302.43 Deg 1.84 ug/m3
2021-07-31 07:00 23.38 ug/m3 70.29 ug/m3 16.44 ug/m3 29.33 C 54.16 % 998.44 mbar 1.61 m/s 293.35 Deg 1.38 ug/m3
2021-07-31 06:00 15.68 ug/m3 71.8 ug/m3 12.18 ug/m3 27.44 C 63.52 % 997.99 mbar 0.98 m/s 305.46 Deg 0.57 ug/m3
2021-07-31 05:00 3.15 ug/m3 92.09 ug/m3 11.77 ug/m3 27.38 C 70.67 % 998.03 mbar 0.78 m/s 325.05 Deg 0.04 ug/m3
2021-07-31 04:00 1.8 ug/m3 98.18 ug/m3 11.35 ug/m3 27.69 C 65.92 % 997.89 mbar 1 m/s 319.46 Deg -0.02 ug/m3
2021-07-31 03:00 1.16 ug/m3 101.21 ug/m3 11.1 ug/m3 28.1 C 62.37 % 998.35 mbar 1.63 m/s 312.28 Deg 0.22 ug/m3
2021-07-31 02:00 1.91 ug/m3 93.9 ug/m3 12.09 ug/m3 28.32 C 53.36 % 998.72 mbar 1.07 m/s 310.58 Deg 0.1 ug/m3
2021-07-31 01:00 2.7 ug/m3 89.08 ug/m3 15.23 ug/m3 28.88 C 45.36 % 999.24 mbar 0.82 m/s 245.08 Deg 0 ug/m3
2021-07-31 00:00 5.6 ug/m3 81.49 ug/m3 13.68 ug/m3 29.14 C 41.78 % 999.57 mbar 0.93 m/s 265.37 Deg 0.12 ug/m3
2021-07-30 23:00 8.78 ug/m3 72.26 ug/m3 12.28 ug/m3 29.31 C 39.08 % 999.74 mbar 0.71 m/s 265 Deg 0.07 ug/m3
2021-07-30 22:00 8.22 ug/m3 72.77 ug/m3 12.92 ug/m3 29.46 C 38.44 % 999.59 mbar 0.65 m/s 282.83 Deg 0.12 ug/m3
2021-07-30 21:00 9.86 ug/m3 69.02 ug/m3 13.64 ug/m3 29.61 C 38.91 % 999.60 mbar 0.71 m/s 214.42 Deg -0.04 ug/m3
2021-07-30 20:00 8.31 ug/m3 72.57 ug/m3 13.66 ug/m3 30.7 C 33.84 % 999.25 mbar 1.19 m/s 251.68 Deg 0.05 ug/m3
2021-07-30 19:00 5.49 ug/m3 73.66 ug/m3 12.28 ug/m3 32.01 C 28.41 % 999.11 mbar 1.57 m/s 286.61 Deg 0.19 ug/m3
2021-07-30 18:00 3.29 ug/m3 74.74 ug/m3 14.19 ug/m3 33 C 29.48 % 999.15 mbar 1.71 m/s 301.86 Deg 0.33 ug/m3
2021-07-30 17:00 4.57 ug/m3 73.37 ug/m3 14.79 ug/m3 34.26 C 24.78 % 999.42 mbar 1.79 m/s 296.63 Deg 0.69 ug/m3
2021-07-30 16:00 4.72 ug/m3 75.16 ug/m3 15.74 ug/m3 34.96 C 23 % 999.85 mbar 2.16 m/s 296.07 Deg 0.93 ug/m3
2021-07-30 15:00 3.41 ug/m3 81.01 ug/m3 17.36 ug/m3 35.16 C 22.4 % 1,000.25 mbar 2.15 m/s 290.98 Deg 0.43 ug/m3
2021-07-30 14:00 6.87 ug/m3 79.22 ug/m3 15.49 ug/m3 35.15 C 22.92 % 1,000.64 mbar 2.27 m/s 297.35 Deg 1.64 ug/m3
2021-07-30 13:00 4.83 ug/m3 83.06 ug/m3 15.81 ug/m3 34.8 C 25.95 % 1,000.95 mbar 1.8 m/s 308.6 Deg 0.95 ug/m3
2021-07-30 12:00 5.08 ug/m3 86.2 ug/m3 15.6 ug/m3 35.09 C 23.37 % 1,001.27 mbar 1.81 m/s 309.76 Deg 0.7 ug/m3
2021-07-30 11:00 4.93 ug/m3 85.83 ug/m3 16.1 ug/m3 35.71 C 18.69 % 1,001.44 mbar 1.67 m/s 306.49 Deg 0.68 ug/m3
2021-07-30 10:00 5.33 ug/m3 87.56 ug/m3 16.91 ug/m3 35.34 C 18.16 % 1,001.74 mbar 1.52 m/s 310.85 Deg 0.63 ug/m3
2021-07-30 09:00 11.45 ug/m3 81.39 ug/m3 16.78 ug/m3 34.72 C 19.48 % 1,001.53 mbar 1.24 m/s 305.87 Deg 1.78 ug/m3
2021-07-30 08:00 20.9 ug/m3 76.96 ug/m3 16.42 ug/m3 32.68 C 24.69 % 1,001.39 mbar 0.98 m/s 92.64 Deg 2.43 ug/m3
2021-07-30 07:00 28.72 ug/m3 67.63 ug/m3 14.81 ug/m3 29.61 C 33.67 % 1,001.11 mbar 0.52 m/s 92.16 Deg 2.02 ug/m3
2021-07-30 06:00 23.23 ug/m3 72.37 ug/m3 10.61 ug/m3 27.45 C 34.44 % 1,000.90 mbar 0.68 m/s 177.69 Deg 0.49 ug/m3
2021-07-30 05:00 3.39 ug/m3 95.4 ug/m3 10.46 ug/m3 27.81 C 32.92 % 1,000.71 mbar 0.71 m/s 342.26 Deg 0.06 ug/m3
2021-07-30 04:00 3.38 ug/m3 88.32 ug/m3 10.44 ug/m3 27.52 C 32.2 % 1,000.70 mbar 0.53 m/s 324.9 Deg 0.05 ug/m3
2021-07-30 03:00 3.02 ug/m3 71.42 ug/m3 10.69 ug/m3 27.18 C 33.67 % 1,001.01 mbar 0.3 m/s 306.38 Deg 0.07 ug/m3
2021-07-30 02:00 5.38 ug/m3 78.33 ug/m3 11.77 ug/m3 27.75 C 31.67 % 1,001.35 mbar 0.29 m/s 303.6 Deg 0.05 ug/m3
2021-07-30 01:00 18.54 ug/m3 57.23 ug/m3 11.9 ug/m3 27.86 C 30.78 % 1,001.59 mbar 0.25 m/s 193.52 Deg 0.1 ug/m3
2021-07-30 00:00 14.85 ug/m3 72.18 ug/m3 10.18 ug/m3 28.87 C 27.43 % 1,001.70 mbar 0.3 m/s 238.69 Deg 0.13 ug/m3
2021-07-29 23:00 5.15 ug/m3 93.78 ug/m3 8.87 ug/m3 29.56 C 24.98 % 1,001.87 mbar 0.46 m/s 321.55 Deg 0.04 ug/m3
2021-07-29 22:00 2.26 ug/m3 104 ug/m3 10.78 ug/m3 29.72 C 24.53 % 1,001.78 mbar 0.58 m/s 249.16 Deg 0.08 ug/m3
2021-07-29 21:00 2.87 ug/m3 105.16 ug/m3 10.99 ug/m3 30.29 C 24.85 % 1,001.63 mbar 0.69 m/s 321.93 Deg 0.07 ug/m3
2021-07-29 20:00 3.78 ug/m3 106.33 ug/m3 9.74 ug/m3 30.78 C 25.99 % 1,001.23 mbar 1.28 m/s 343.79 Deg 0.08 ug/m3
2021-07-29 19:00 6.39 ug/m3 100.95 ug/m3 10.01 ug/m3 31.7 C 27.84 % 1,000.88 mbar 1.49 m/s 260.08 Deg 0.13 ug/m3
2021-07-29 18:00 3.84 ug/m3 104.08 ug/m3 9.59 ug/m3 32.87 C 27.31 % 1,000.73 mbar 1.19 m/s 342.65 Deg 0.25 ug/m3
2021-07-29 17:00 3.08 ug/m3 103.73 ug/m3 10.39 ug/m3 33.44 C 27.68 % 1,000.84 mbar 1.85 m/s 341.5 Deg 0.29 ug/m3
2021-07-29 16:00 2.95 ug/m3 104.43 ug/m3 12.33 ug/m3 34.22 C 27.59 % 1,001.20 mbar 1.46 m/s 321.13 Deg 0.28 ug/m3
2021-07-29 15:00 4.02 ug/m3 103.91 ug/m3 11.33 ug/m3 34.42 C 26.86 % 1,001.42 mbar 1.73 m/s 335.15 Deg 0.37 ug/m3
2021-07-29 14:00 4.27 ug/m3 104.67 ug/m3 11.27 ug/m3 34.36 C 26.77 % 1,001.72 mbar 1.94 m/s 338.24 Deg 0.91 ug/m3
2021-07-29 13:00 4.65 ug/m3 109.44 ug/m3 11.86 ug/m3 34.26 C 27.06 % 1,002.10 mbar 1.95 m/s 343.19 Deg 0.67 ug/m3
2021-07-29 12:00 3.96 ug/m3 109.4 ug/m3 12.84 ug/m3 34.13 C 29.33 % 1,002.42 mbar 1.7 m/s 336.6 Deg 0.53 ug/m3
2021-07-29 11:00 9.58 ug/m3 103.42 ug/m3 11.9 ug/m3 33.43 C 33.92 % 1,002.45 mbar 2.1 m/s 104.34 Deg 1.22 ug/m3
2021-07-29 10:00 13.58 ug/m3 101.58 ug/m3 13.15 ug/m3 33.01 C 27.77 % 1,002.46 mbar 2.4 m/s 103.72 Deg 2.79 ug/m3
2021-07-29 09:00 11.46 ug/m3 96.52 ug/m3 17.84 ug/m3 32.88 C 27.16 % 1,002.19 mbar 1.3 m/s 173.38 Deg 1.07 ug/m3
2021-07-29 08:00 19.65 ug/m3 85.32 ug/m3 15.66 ug/m3 31.75 C 24.47 % 1,002.02 mbar 1.3 m/s 93.6 Deg 1.92 ug/m3
2021-07-29 07:00 27.76 ug/m3 74.15 ug/m3 15.68 ug/m3 29.67 C 27.83 % 1,001.65 mbar 1.25 m/s 348.55 Deg 1.45 ug/m3
2021-07-29 06:00 27.3 ug/m3 70.69 ug/m3 11.24 ug/m3 27.96 C 31.68 % 1,001.53 mbar 0.87 m/s 258.76 Deg 0.47 ug/m3
2021-07-29 05:00 13.9 ug/m3 85.94 ug/m3 9.95 ug/m3 27.96 C 26.69 % 1,001.27 mbar 1 m/s 352 Deg 0.09 ug/m3
2021-07-29 04:00 14.72 ug/m3 81.95 ug/m3 11.14 ug/m3 28.01 C 27.97 % 1,001.16 mbar 0.61 m/s 335.62 Deg -0.13 ug/m3
2021-07-29 03:00 8.1 ug/m3 87.46 ug/m3 10.16 ug/m3 28.11 C 32.11 % 1,001.35 mbar 0.43 m/s 324.62 Deg 0.07 ug/m3
2021-07-29 02:00 3.84 ug/m3 96.68 ug/m3 10.67 ug/m3 28.54 C 31.83 % 1,001.55 mbar 0.86 m/s 341.95 Deg 0.1 ug/m3
2021-07-29 01:00 8.25 ug/m3 89.02 ug/m3 13.28 ug/m3 27.99 C 36.34 % 1,001.93 mbar 0.62 m/s 330.76 Deg 0.08 ug/m3
2021-07-29 00:00 19.29 ug/m3 71.54 ug/m3 13.22 ug/m3 27.5 C 41.23 % 1,002.31 mbar 0.64 m/s 246.79 Deg 0.17 ug/m3
2021-07-28 23:00 9.66 ug/m3 80.5 ug/m3 10.65 ug/m3 27.23 C 47.65 % 1,002.39 mbar 0.59 m/s 323.89 Deg 0.05 ug/m3
2021-07-28 22:00 8.78 ug/m3 85.17 ug/m3 9.69 ug/m3 27.36 C 55.08 % 1,002.62 mbar 0.81 m/s 262.08 Deg 0.06 ug/m3
2021-07-28 21:00 7.5 ug/m3 92.36 ug/m3 10.9 ug/m3 27.87 C 53.51 % 1,002.64 mbar 0.87 m/s 347.96 Deg 0.11 ug/m3
2021-07-28 20:00 12.13 ug/m3 95.33 ug/m3 11.46 ug/m3 28.63 C 50.45 % 1,002.37 mbar 1.46 m/s 8.48 Deg 0.19 ug/m3
2021-07-28 19:00 12.39 ug/m3 98.35 ug/m3 12.64 ug/m3 30.14 C 46.02 % 1,002.18 mbar 1.78 m/s 12.43 Deg 0.26 ug/m3
2021-07-28 18:00 6.26 ug/m3 104.59 ug/m3 10.73 ug/m3 32.55 C 33.03 % 1,001.83 mbar 1.3 m/s 250.54 Deg 0.43 ug/m3
2021-07-28 17:00 4.44 ug/m3 112.47 ug/m3 10.9 ug/m3 33.64 C 28.68 % 1,001.81 mbar 1.54 m/s 328.89 Deg 0.42 ug/m3
2021-07-28 16:00 7.76 ug/m3 113.02 ug/m3 11.84 ug/m3 33.41 C 31.5 % 1,002.08 mbar 2.08 m/s 103.28 Deg 0.76 ug/m3
2021-07-28 15:00 8.39 ug/m3 109.74 ug/m3 11.33 ug/m3 33.29 C 29.31 % 1,002.39 mbar 2.78 m/s 30.22 Deg 0.95 ug/m3
2021-07-28 14:00 8.17 ug/m3 110.83 ug/m3 12.18 ug/m3 33.31 C 27.73 % 1,002.70 mbar 2.58 m/s 26.32 Deg 0.99 ug/m3
2021-07-28 13:00 6.73 ug/m3 116.73 ug/m3 10.99 ug/m3 33.51 C 25.06 % 1,002.83 mbar 2.62 m/s 21.88 Deg 0.83 ug/m3
2021-07-28 12:00 5.54 ug/m3 116.71 ug/m3 9.55 ug/m3 33.17 C 22.62 % 1,003.01 mbar 2.38 m/s 28.67 Deg 0.62 ug/m3
2021-07-28 11:00 5.83 ug/m3 114.1 ug/m3 9.04 ug/m3 32.59 C 21.39 % 1,003.15 mbar 2.31 m/s 22.93 Deg 0.63 ug/m3
2021-07-28 10:00 7.63 ug/m3 112.38 ug/m3 11.5 ug/m3 31.95 C 21.93 % 1,003.22 mbar 2.01 m/s 21.15 Deg 0.77 ug/m3
2021-07-28 09:00 8.73 ug/m3 107.61 ug/m3 13.03 ug/m3 30.49 C 25.44 % 1,003.07 mbar 2.5 m/s 17.05 Deg 0.77 ug/m3
2021-07-28 08:00 24.66 ug/m3 86.44 ug/m3 17.95 ug/m3 29.67 C 28.34 % 1,003.16 mbar 1.86 m/s 12.48 Deg 2.7 ug/m3
2021-07-28 07:00 32.71 ug/m3 72.41 ug/m3 12.01 ug/m3 28.19 C 31.52 % 1,003.04 mbar 0.78 m/s 179.37 Deg 1.92 ug/m3
2021-07-28 06:00 19.87 ug/m3 81.59 ug/m3 8.27 ug/m3 26.1 C 38.9 % 1,002.90 mbar 0.52 m/s 238.68 Deg 0.37 ug/m3
2021-07-28 05:00 8.89 ug/m3 91.99 ug/m3 7.08 ug/m3 25.56 C 50.5 % 1,002.76 mbar 0.86 m/s 332.58 Deg 0.03 ug/m3
2021-07-28 04:00 5.07 ug/m3 99.5 ug/m3 6.91 ug/m3 25.9 C 47.27 % 1,002.68 mbar 1.17 m/s 343.13 Deg 0.1 ug/m3
2021-07-28 03:00 6.68 ug/m3 96.89 ug/m3 6.15 ug/m3 26.12 C 41.95 % 1,002.89 mbar 1.08 m/s 342.68 Deg 0.09 ug/m3
2021-07-28 02:00 4.47 ug/m3 101.28 ug/m3 7.87 ug/m3 26.38 C 31.79 % 1,003.19 mbar 0.82 m/s 334.37 Deg -0.01 ug/m3
2021-07-28 01:00 20.96 ug/m3 73.47 ug/m3 11.2 ug/m3 26.39 C 30.18 % 1,003.50 mbar 0.43 m/s 290.65 Deg 0.14 ug/m3
2021-07-28 00:00 24.23 ug/m3 54.25 ug/m3 9.23 ug/m3 26.41 C 41.07 % 1,003.92 mbar 0.45 m/s 287.65 Deg 0.08 ug/m3
2021-07-27 23:00 12.87 ug/m3 81.32 ug/m3 12.54 ug/m3 27.47 C 38.96 % 1,004.12 mbar 0.41 m/s 239.71 Deg 0.1 ug/m3
2021-07-27 22:00 18.87 ug/m3 67.89 ug/m3 11.6 ug/m3 27.34 C 58.22 % 1,004.24 mbar 0.48 m/s 299.69 Deg 0.23 ug/m3
2021-07-27 21:00 12.88 ug/m3 73.83 ug/m3 9.86 ug/m3 27.73 C 62.07 % 1,004.13 mbar 0.61 m/s 222.59 Deg 0.15 ug/m3
2021-07-27 20:00 11.68 ug/m3 88.26 ug/m3 9.48 ug/m3 29.16 C 51.76 % 1,003.75 mbar 0.82 m/s 228.86 Deg 0.05 ug/m3
2021-07-27 19:00 8.45 ug/m3 111.07 ug/m3 10.16 ug/m3 30.15 C 39.56 % 1,003.63 mbar 0.9 m/s 168.7 Deg 0.17 ug/m3
2021-07-27 18:00 5.67 ug/m3 113.51 ug/m3 12.18 ug/m3 30.08 C 50.92 % 1,003.59 mbar 1.45 m/s 113.83 Deg 0.28 ug/m3
2021-07-27 17:00 6.04 ug/m3 110.85 ug/m3 12.58 ug/m3 30.65 C 51.22 % 1,003.76 mbar 1.76 m/s 20.26 Deg 0.47 ug/m3
2021-07-27 16:00 6.03 ug/m3 105.57 ug/m3 13.15 ug/m3 30.73 C 54.6 % 1,004.07 mbar 1.75 m/s 194.53 Deg 0.73 ug/m3
2021-07-27 15:00 4.72 ug/m3 108.18 ug/m3 10.63 ug/m3 31.22 C 48.61 % 1,004.30 mbar 1.89 m/s 14.45 Deg 0.55 ug/m3
2021-07-27 14:00 3.66 ug/m3 111.79 ug/m3 11.18 ug/m3 31.16 C 49.04 % 1,004.67 mbar 1.78 m/s 185.88 Deg 0.45 ug/m3
2021-07-27 13:00 4.88 ug/m3 110.89 ug/m3 15.04 ug/m3 30.48 C 53.53 % 1,005.18 mbar 1.99 m/s 178.97 Deg 0.67 ug/m3
2021-07-27 12:00 8.54 ug/m3 114.33 ug/m3 7.95 ug/m3 30.65 C 56.57 % 1,005.25 mbar 1.95 m/s 104.57 Deg 0.98 ug/m3
2021-07-27 11:00 8.31 ug/m3 109.34 ug/m3 7.44 ug/m3 31.95 C 38.12 % 1,005.26 mbar 1.22 m/s 305.01 Deg 1.01 ug/m3
2021-07-27 10:00 5.9 ug/m3 104.76 ug/m3 9.84 ug/m3 30.91 C 36.1 % 1,005.30 mbar 1.56 m/s 229.67 Deg 0.92 ug/m3
2021-07-27 09:00 6.19 ug/m3 99.52 ug/m3 15.23 ug/m3 28.76 C 57.21 % 1,005.28 mbar 1.73 m/s 221.7 Deg 0.91 ug/m3
2021-07-27 08:00 25.78 ug/m3 72.85 ug/m3 20.09 ug/m3 26.98 C 77.08 % 1,005.16 mbar 1.35 m/s 189.44 Deg 3.92 ug/m3
2021-07-27 07:00 46.56 ug/m3 30.48 ug/m3 17.99 ug/m3 25.64 C 90.88 % 1,004.93 mbar 0.51 m/s 204.67 Deg 9.16 ug/m3
2021-07-27 06:00 15.03 ug/m3 45.74 ug/m3 12.67 ug/m3 24.39 C 93.61 % 1,004.74 mbar 0.34 m/s 269.15 Deg 0.49 ug/m3
2021-07-27 05:00 8.04 ug/m3 51.36 ug/m3 10.48 ug/m3 24.33 C 92.37 % 1,004.31 mbar 0.29 m/s 283.52 Deg 0.03 ug/m3
2021-07-27 04:00 4.34 ug/m3 64.6 ug/m3 9.4 ug/m3 24.65 C 91.91 % 1,004.01 mbar 0.42 m/s 210.76 Deg 0.13 ug/m3
2021-07-27 03:00 1.51 ug/m3 76.39 ug/m3 8.44 ug/m3 25.16 C 90.87 % 1,004.02 mbar 0.74 m/s 174.27 Deg 0.13 ug/m3
2021-07-27 02:00 0.7 ug/m3 79.92 ug/m3 7.34 ug/m3 25.39 C 88.02 % 1,004.09 mbar 0.95 m/s 169.84 Deg -0.02 ug/m3
2021-07-27 01:00 0.93 ug/m3 83.29 ug/m3 8.42 ug/m3 25.5 C 86.17 % 1,004.28 mbar 1.29 m/s 178.43 Deg -0.03 ug/m3
2021-07-27 00:00 3.22 ug/m3 80.86 ug/m3 8.19 ug/m3 25.73 C 82.76 % 1,004.33 mbar 1.68 m/s 168.43 Deg 0.03 ug/m3
2021-07-26 23:00 2.57 ug/m3 76.33 ug/m3 9.72 ug/m3 25.85 C 82.82 % 1,004.21 mbar 1.62 m/s 175.06 Deg 0.16 ug/m3
2021-07-26 22:00 2.18 ug/m3 76.63 ug/m3 13.11 ug/m3 26.06 C 84.5 % 1,004.01 mbar 2.47 m/s 169.9 Deg 0.02 ug/m3
2021-07-26 21:00 4.05 ug/m3 75.57 ug/m3 9.04 ug/m3 26.42 C 82.12 % 1,003.81 mbar 2.37 m/s 169.75 Deg 0.21 ug/m3
2021-07-26 20:00 4.19 ug/m3 77.62 ug/m3 6.83 ug/m3 27.05 C 74.26 % 1,003.21 mbar 2.63 m/s 173.03 Deg 0.23 ug/m3
2021-07-26 19:00 3.64 ug/m3 80.52 ug/m3 9.21 ug/m3 27.8 C 64.51 % 1,002.86 mbar 2.52 m/s 178.07 Deg 0.28 ug/m3
2021-07-26 18:00 5.2 ug/m3 82.04 ug/m3 8.95 ug/m3 28.6 C 61.46 % 1,002.66 mbar 2.91 m/s 184.15 Deg 0.8 ug/m3

It is to be noted that the data is provisional and subject to quality assurance procedures. For validated data kindly refer your request to contact.air@era.org.mt